Washington, NC

1:57 AM EDT on October 01, 2016 (GMT -0400)
Warren

Weather History for KOCW - November, 2011

Change the Weather History Date:

Thursday, November 17, 2011

  Actual Average (KEWN) Record (KEWN)
Temperature  
Mean Temperature 54 °F 55 °F  
Max Temperature 69 °F 66 °F 81 °F (1957)
Min Temperature 39 °F 44 °F 22 °F (1967)
Degree Days  
Heating Degree Days 11 11  
Month to date heating degree days 147  
Since 1 July heating degree days 264  
Cooling Degree Days 0 0  
Month to date cooling degree days 14  
Year to date cooling degree days 1899  
Growing Degree Days 4 (Base 50)    
Moisture  
Dew Point 46 °F    
Average Humidity 79    
Maximum Humidity 83    
Minimum Humidity 70    
Precipitation  
Precipitation 0.16 in 0.12 in 0.77 in (2002)
Month to date precipitation 1.89  
Year to date precipitation 47.84  
Snow  
Snow 0.00 in - - ()
Month to date snowfall  
Since 1 July snowfall  
Snow Depth -    
Sea Level Pressure  
Sea Level Pressure 29.95 in    
Wind  
Wind Speed 9 mph (NNW)    
Max Wind Speed 20 mph    
Max Gust Speed 28 mph    
Visibility 9 miles    
Events Rain    
T = Trace of Precipitation, MM = Missing Value Source: NWS Daily Summary

Daily Weather History Graph

Daily Weather History Graph

Search for Another Location

Airport or City:

Trip Planner

Search our weather history database for the weather conditions in past years. The results will help you decide how hot, cold, wet, or windy it might be!

Date:

Astronomy

Nov. 17, 2011 Rise Set
Actual Time 6:45 AM EST 5:00 PM EST
Civil Twilight 6:18 AM EST 5:27 PM EST
Nautical Twilight 5:47 AM EST 5:58 PM EST
Astronomical Twilight 5:17 AM EST 6:28 PM EST
Moon 11:14 PM EST (11/17) 11:56 AM EST (11/17)
Length of Visible Light 11h 09m
Length of Day
10h 14m
Waning Gibbous, 60% of the Moon is Illuminated
Nov 17
Waning Gibbous
Nov 18
Last Quarter
Nov 25
New
Dec 2
First Quarter
Dec 10
Full

Hourly Weather History & Observations

Time (EST) Temp. Windchill Dew Point Humidity Pressure Visibility Wind Dir Wind Speed Gust Speed Precip Events Conditions
12:15 AM 69.8 °F - 62.6 °F 78% 29.83 in 10.0 mi SSW 10.4 mph 17.3 mph N/A   Scattered Clouds
12:55 AM 68.0 °F - 60.8 °F 78% 29.81 in 10.0 mi SSW 6.9 mph - N/A   Scattered Clouds
1:15 AM 68.0 °F - 60.8 °F 78% 29.81 in 10.0 mi SSW 8.1 mph - N/A   Mostly Cloudy
1:35 AM 68.0 °F - 60.8 °F 78% 29.80 in 10.0 mi SSW 8.1 mph - N/A   Mostly Cloudy
1:55 AM 68.0 °F - 60.8 °F 78% 29.80 in 10.0 mi SSW 6.9 mph - N/A   Mostly Cloudy
2:15 AM 69.8 °F - 62.6 °F 78% 29.79 in 10.0 mi SW 11.5 mph 16.1 mph N/A   Scattered Clouds
2:55 AM 68.0 °F - 62.6 °F 83% 29.79 in 10.0 mi SW 12.7 mph - N/A   Scattered Clouds
3:15 AM 69.8 °F - 62.6 °F 78% 29.79 in 10.0 mi SW 12.7 mph 18.4 mph N/A   Mostly Cloudy
3:35 AM 69.8 °F - 62.6 °F 78% 29.78 in 10.0 mi SW 11.5 mph - N/A   Mostly Cloudy
3:55 AM 68.0 °F - 60.8 °F 78% 29.77 in 10.0 mi WSW 9.2 mph - N/A   Scattered Clouds
4:15 AM 68.0 °F - 60.8 °F 78% 29.78 in 10.0 mi SW 6.9 mph - N/A   Mostly Cloudy
4:35 AM 64.4 °F - 59.0 °F 83% 29.79 in 10.0 mi NW 10.4 mph 16.1 mph N/A   Overcast
4:55 AM 62.6 °F - 55.4 °F 77% 29.79 in 10.0 mi NNW 9.2 mph - N/A Rain Light Rain
5:15 AM 60.8 °F - 53.6 °F 77% 29.79 in 10.0 mi North 11.5 mph - N/A Rain Light Rain
5:35 AM 60.8 °F - 53.6 °F 77% 29.81 in 10.0 mi North 10.4 mph - N/A   Overcast
5:55 AM 59.0 °F - 51.8 °F 77% 29.80 in 10.0 mi North 10.4 mph - N/A   Overcast
6:15 AM 57.2 °F - 51.8 °F 82% 29.81 in 10.0 mi North 10.4 mph - N/A   Overcast
6:35 AM 57.2 °F - 51.8 °F 82% 29.81 in 10.0 mi North 9.2 mph - N/A   Overcast
6:55 AM 57.2 °F - 51.8 °F 82% 29.81 in 10.0 mi NNW 12.7 mph - N/A   Overcast
7:15 AM 57.2 °F - 51.8 °F 82% 29.83 in 10.0 mi North 8.1 mph - N/A   Overcast
7:35 AM 57.2 °F - 51.8 °F 82% 29.83 in 10.0 mi North 10.4 mph - N/A   Overcast
7:55 AM 57.2 °F - 51.8 °F 82% 29.83 in 10.0 mi North 10.4 mph - N/A   Overcast
8:15 AM 57.2 °F - 51.8 °F 82% 29.85 in 4.0 mi NNE 8.1 mph - N/A   Haze
8:35 AM 57.2 °F - 51.8 °F 82% 29.85 in 3.0 mi North 6.9 mph - N/A Rain Rain
8:55 AM 53.6 °F - 48.2 °F 82% 29.85 in 2.5 mi North 6.9 mph - N/A   Light Drizzle
9:15 AM 53.6 °F - 48.2 °F 82% 29.84 in 3.0 mi North 9.2 mph - N/A   Haze
9:55 AM 57.2 °F - 50.0 °F 77% 29.83 in 5.0 mi NNE 5.8 mph - N/A   Haze
10:15 AM 53.6 °F - 48.2 °F 82% 29.83 in 5.0 mi North 8.1 mph - N/A   Haze
10:35 AM 55.4 °F - 48.2 °F 77% 29.83 in 4.0 mi NE 4.6 mph - N/A Rain Rain
10:55 AM 53.6 °F - 48.2 °F 82% 29.83 in 3.0 mi North 6.9 mph - 0.02 in Rain Rain
11:15 AM 53.6 °F - 48.2 °F 82% 29.86 in 3.0 mi NNW 11.5 mph - 0.04 in Rain Heavy Rain
11:35 AM 51.8 °F - 46.4 °F 82% 29.87 in 3.0 mi NNW 11.5 mph 17.3 mph 0.08 in Rain Rain
12:35 PM 44.6 °F 36.6 °F 39.2 °F 81% 29.89 in 7.0 mi North 19.6 mph 27.6 mph 0.06 in Rain Light Rain
12:55 PM 44.6 °F 37.4 °F 39.2 °F 81% 29.91 in 10.0 mi North 16.1 mph 27.6 mph 0.06 in   Mostly Cloudy
1:15 PM 44.6 °F 37.4 °F 39.2 °F 81% 29.94 in 10.0 mi North 16.1 mph 26.5 mph N/A   Overcast
1:35 PM 46.4 °F 40.1 °F 41.0 °F 81% 29.95 in 10.0 mi North 15.0 mph 20.7 mph N/A   Mostly Cloudy
1:55 PM 46.4 °F 40.1 °F 41.0 °F 81% 29.95 in 10.0 mi NNW 15.0 mph 19.6 mph N/A   Mostly Cloudy
2:15 PM 46.4 °F 40.4 °F 39.2 °F 76% 29.97 in 10.0 mi NNW 13.8 mph 19.6 mph N/A   Overcast
2:35 PM 44.6 °F 37.4 °F 39.2 °F 81% 29.99 in 10.0 mi North 16.1 mph 21.9 mph N/A   Overcast
2:55 PM 44.6 °F 38.8 °F 39.2 °F 81% 30.00 in 10.0 mi NNW 11.5 mph 17.3 mph N/A   Overcast
3:15 PM 46.4 °F 39.8 °F 37.4 °F 71% 30.00 in 10.0 mi North 16.1 mph - N/A   Mostly Cloudy
3:35 PM 44.6 °F 37.8 °F 37.4 °F 76% 30.02 in 10.0 mi North 15.0 mph - N/A   Mostly Cloudy
3:55 PM 44.6 °F 38.1 °F 37.4 °F 76% 30.04 in 10.0 mi North 13.8 mph 24.2 mph N/A   Overcast
4:15 PM 44.6 °F 39.2 °F 37.4 °F 76% 30.05 in 10.0 mi NNW 10.4 mph - N/A   Overcast
4:35 PM 44.6 °F 40.7 °F 37.4 °F 76% 30.06 in 10.0 mi NNW 6.9 mph - N/A   Scattered Clouds
4:55 PM 42.8 °F 38.6 °F 35.6 °F 76% 30.07 in 10.0 mi NNW 6.9 mph - N/A   Clear
5:15 PM 42.8 °F 38.6 °F 35.6 °F 76% 30.09 in 10.0 mi NW 6.9 mph - N/A   Scattered Clouds
5:35 PM 42.8 °F 38.6 °F 35.6 °F 76% 30.11 in 10.0 mi NW 6.9 mph - N/A   Clear
5:55 PM 42.8 °F 39.3 °F 35.6 °F 76% 30.12 in 10.0 mi NW 5.8 mph - N/A   Clear
6:15 PM 42.8 °F 41.1 °F 35.6 °F 76% 30.14 in 10.0 mi NW 3.5 mph - N/A   Clear
6:35 PM 42.8 °F 40.1 °F 35.6 °F 76% 30.15 in 10.0 mi NW 4.6 mph - N/A   Clear
6:55 PM 41.0 °F 37.1 °F 35.6 °F 81% 30.16 in 10.0 mi NW 5.8 mph - N/A   Clear
7:15 PM 41.0 °F 38.0 °F 35.6 °F 81% 30.18 in 10.0 mi NW 4.6 mph - N/A   Scattered Clouds
7:35 PM 42.8 °F 40.1 °F 35.6 °F 76% 30.19 in 10.0 mi NW 4.6 mph - N/A   Mostly Cloudy
7:55 PM 41.0 °F 39.0 °F 35.6 °F 81% 30.20 in 10.0 mi NW 3.5 mph - N/A   Scattered Clouds
8:15 PM 41.0 °F - 33.8 °F 76% 30.21 in 10.0 mi Calm Calm - N/A   Clear
8:35 PM 41.0 °F - 33.8 °F 76% 30.21 in 10.0 mi Calm Calm - N/A   Clear
8:55 PM 39.2 °F - 33.8 °F 81% 30.23 in 10.0 mi Calm Calm - N/A   Clear
9:15 PM 39.2 °F 35.9 °F 33.8 °F 81% 30.24 in 10.0 mi WNW 4.6 mph - N/A   Clear
9:35 PM 42.8 °F 38.6 °F 35.6 °F 76% 30.25 in 10.0 mi WNW 6.9 mph - N/A   Clear
9:55 PM 42.8 °F 39.3 °F 33.8 °F 70% 30.26 in 10.0 mi NW 5.8 mph - N/A   Clear
10:55 PM 39.2 °F 35.9 °F 32.0 °F 75% 30.29 in 10.0 mi NW 4.6 mph - N/A   Clear
11:35 PM 37.4 °F 33.8 °F 32.0 °F 81% 30.29 in 10.0 mi NW 4.6 mph - N/A   Clear
11:55 PM 37.4 °F 34.9 °F 30.2 °F 75% 30.30 in 10.0 mi NW 3.5 mph - N/A   Clear